Time,TemperatureF,DewpointF,PressureIn,WindDirection,WindDirectionDegrees,WindSpeedMPH,WindSpeedGustMPH,Humidity,HourlyPrecipIn,Conditions,Clouds,dailyrainin,SoftwareType,DateUTC
2013-09-07 00:02:00,76.6,64.8,29.84,ESE,113,5.8,5.8,67,0.00,CLR,,0.00,WeatherDisplay:10.37,2013-09-07 05:02:00,
2013-09-07 00:07:00,76.5,64.7,29.84,ESE,113,3.5,3.5,67,0.00,CLR,,0.00,WeatherDisplay:10.37,2013-09-07 05:07:00,
2013-09-07 00:12:00,76.5,64.7,29.84,ESE,113,5.8,5.8,67,0.00,CLR,,0.00,WeatherDisplay:10.37,2013-09-07 05:12:00,
2013-09-07 00:17:00,76.4,64.6,29.84,ESE,113,9.2,9.2,67,0.00,CLR,,0.00,WeatherDisplay:10.37,2013-09-07 05:17:00,
2013-09-07 00:22:00,76.2,64.9,29.84,ESE,113,1.2,0.0,68,0.00,CLR,,0.00,WeatherDisplay:10.37,2013-09-07 05:22:00,
2013-09-07 00:27:00,76.2,64.9,29.84,ESE,113,3.5,3.5,68,0.00,CLR,,0.00,WeatherDisplay:10.37,2013-09-07 05:27:00,
2013-09-07 00:32:00,76.1,64.8,29.84,ESE,113,3.5,3.5,68,0.00,CLR,,0.00,WeatherDisplay:10.37,2013-09-07 05:32:00,
2013-09-07 00:37:00,76.1,64.8,29.84,ESE,113,1.2,1.2,68,0.00,CLR,,0.00,WeatherDisplay:10.37,2013-09-07 05:37:00,
2013-09-07 00:42:00,75.9,64.6,29.84,ESE,113,4.6,4.6,68,0.00,CLR,,0.00,WeatherDisplay:10.37,2013-09-07 05:42:00,
2013-09-07 00:47:00,75.8,64.5,29.84,ESE,113,3.5,3.5,68,0.00,CLR,,0.00,WeatherDisplay:10.37,2013-09-07 05:47:00,
2013-09-07 00:52:00,75.9,64.6,29.84,ESE,113,5.0,5.0,68,0.00,CLR,,0.00,WeatherDisplay:10.37,2013-09-07 05:52:00,
2013-09-07 00:57:00,76.0,64.7,29.84,ESE,113,3.5,3.5,68,0.00,CLR,,0.00,WeatherDisplay:10.37,2013-09-07 05:57:00,
2013-09-07 01:02:00,75.9,64.6,29.84,ESE,113,4.6,4.6,68,0.00,CLR,,0.00,WeatherDisplay:10.37,2013-09-07 06:02:00,
2013-09-07 01:07:00,75.8,64.5,29.84,ESE,113,5.8,5.8,68,0.00,CLR,,0.00,WeatherDisplay:10.37,2013-09-07 06:07:00,
2013-09-07 01:12:00,75.8,64.5,29.84,ESE,113,3.5,3.5,68,0.00,CLR,,0.00,WeatherDisplay:10.37,2013-09-07 06:12:00,
2013-09-07 01:17:00,75.7,64.4,29.84,ESE,113,3.5,3.5,68,0.00,CLR,,0.00,WeatherDisplay:10.37,2013-09-07 06:17:00,
2013-09-07 01:22:00,75.6,64.3,29.84,ESE,113,1.2,1.2,68,0.00,CLR,,0.00,WeatherDisplay:10.37,2013-09-07 06:22:00,
2013-09-07 01:27:00,75.5,64.6,29.84,ESE,113,2.3,2.3,69,0.00,CLR,,0.00,WeatherDisplay:10.37,2013-09-07 06:27:00,
2013-09-07 01:32:00,75.3,64.4,29.84,ESE,113,3.5,3.5,69,0.00,CLR,,0.00,WeatherDisplay:10.37,2013-09-07 06:32:00,
2013-09-07 01:37:00,75.2,64.3,29.84,ESE,113,1.2,1.2,69,0.00,CLR,,0.00,WeatherDisplay:10.37,2013-09-07 06:37:00,
2013-09-07 01:42:00,75.1,64.2,29.84,ESE,113,2.3,2.3,69,0.00,CLR,,0.00,WeatherDisplay:10.37,2013-09-07 06:42:00,
2013-09-07 01:47:00,74.9,64.0,29.84,ESE,113,2.3,0.0,69,0.00,CLR,,0.00,WeatherDisplay:10.37,2013-09-07 06:47:00,
2013-09-07 01:52:00,74.8,64.4,29.84,ESE,113,0.0,0.4,70,0.00,CLR,,0.00,WeatherDisplay:10.37,2013-09-07 06:52:00,
2013-09-07 01:57:00,74.8,64.4,29.84,ESE,113,4.0,4.0,70,0.00,CLR,,0.00,WeatherDisplay:10.37,2013-09-07 06:57:00,
2013-09-07 02:02:00,74.7,64.3,29.84,ESE,113,3.5,3.5,70,0.00,CLR,,0.00,WeatherDisplay:10.37,2013-09-07 07:02:00,
2013-09-07 02:07:00,74.7,64.3,29.84,ESE,113,3.5,3.5,70,0.00,CLR,,0.00,WeatherDisplay:10.37,2013-09-07 07:07:00,
2013-09-07 02:12:00,74.6,64.6,29.84,ESE,113,3.5,3.5,71,0.00,CLR,,0.00,WeatherDisplay:10.37,2013-09-07 07:12:00,
2013-09-07 02:17:00,74.5,64.5,29.84,ESE,113,4.6,4.6,71,0.00,CLR,,0.00,WeatherDisplay:10.37,2013-09-07 07:17:00,
2013-09-07 02:22:00,74.4,64.4,29.84,ESE,113,3.5,3.5,71,0.00,CLR,,0.00,WeatherDisplay:10.37,2013-09-07 07:22:00,
2013-09-07 02:27:00,74.3,64.7,29.84,ESE,113,3.5,3.5,72,0.00,CLR,,0.00,WeatherDisplay:10.37,2013-09-07 07:27:00,
2013-09-07 02:32:00,74.2,64.6,29.83,ESE,113,5.8,5.8,72,0.00,CLR,,0.00,WeatherDisplay:10.37,2013-09-07 07:32:00,
2013-09-07 02:37:00,74.0,64.4,29.83,ESE,113,4.6,4.6,72,0.00,CLR,,0.00,WeatherDisplay:10.37,2013-09-07 07:37:00,
2013-09-07 02:42:00,74.0,64.8,29.83,ESE,113,5.0,5.0,73,0.00,CLR,,0.00,WeatherDisplay:10.37,2013-09-07 07:42:00,
2013-09-07 02:47:00,73.8,64.6,29.83,ESE,113,2.3,2.3,73,0.00,CLR,,0.00,WeatherDisplay:10.37,2013-09-07 07:47:00,
2013-09-07 02:52:00,73.7,64.5,29.84,ESE,113,3.5,3.5,73,0.00,CLR,,0.00,WeatherDisplay:10.37,2013-09-07 07:52:00,
2013-09-07 02:57:00,73.6,64.8,29.83,ESE,113,3.5,3.5,74,0.00,CLR,,0.00,WeatherDisplay:10.37,2013-09-07 07:57:00,
2013-09-07 03:02:00,73.6,64.8,29.83,ESE,113,3.5,3.5,74,0.00,CLR,,0.00,WeatherDisplay:10.37,2013-09-07 08:02:00,
2013-09-07 03:07:00,73.5,64.7,29.83,ESE,113,3.5,3.5,74,0.00,CLR,,0.00,WeatherDisplay:10.37,2013-09-07 08:07:00,
2013-09-07 03:12:00,73.5,65.1,29.84,ESE,113,3.5,3.5,75,0.00,CLR,,0.00,WeatherDisplay:10.37,2013-09-07 08:12:00,
2013-09-07 03:17:00,73.4,65.0,29.84,ESE,113,5.8,5.8,75,0.00,CLR,,0.00,WeatherDisplay:10.37,2013-09-07 08:17:00,
2013-09-07 03:22:00,73.4,65.0,29.84,ESE,113,4.6,4.6,75,0.00,CLR,,0.00,WeatherDisplay:10.37,2013-09-07 08:22:00,
2013-09-07 03:27:00,73.3,64.9,29.84,ESE,113,6.9,6.9,75,0.00,CLR,,0.00,WeatherDisplay:10.37,2013-09-07 08:27:00,
2013-09-07 03:32:00,73.2,64.8,29.83,ESE,113,1.2,0.0,75,0.00,CLR,,0.00,WeatherDisplay:10.37,2013-09-07 08:32:00,
2013-09-07 03:37:00,73.2,64.8,29.84,ESE,113,6.9,6.9,75,0.00,CLR,,0.00,WeatherDisplay:10.37,2013-09-07 08:37:00,
2013-09-07 03:42:00,73.3,64.9,29.84,ESE,113,1.2,1.2,75,0.00,CLR,,0.00,WeatherDisplay:10.37,2013-09-07 08:42:00,
2013-09-07 03:47:00,73.2,64.8,29.84,ESE,113,1.2,1.2,75,0.00,CLR,,0.00,WeatherDisplay:10.37,2013-09-07 08:47:00,
2013-09-07 03:52:00,73.2,64.8,29.84,ESE,113,3.5,3.5,75,0.00,CLR,,0.00,WeatherDisplay:10.37,2013-09-07 08:52:00,
2013-09-07 03:57:00,73.3,64.9,29.84,ESE,113,4.6,4.6,75,0.00,CLR,,0.00,WeatherDisplay:10.37,2013-09-07 08:57:00,
2013-09-07 04:02:00,73.5,65.1,29.84,ESE,113,5.8,5.8,75,0.00,CLR,,0.00,WeatherDisplay:10.37,2013-09-07 09:02:00,
2013-09-07 04:07:00,73.7,64.9,29.84,ESE,113,5.8,5.8,74,0.00,CLR,,0.00,WeatherDisplay:10.37,2013-09-07 09:07:00,
2013-09-07 04:12:00,73.9,65.1,29.83,ESE,113,4.0,4.0,74,0.00,CLR,,0.00,WeatherDisplay:10.37,2013-09-07 09:12:00,
2013-09-07 04:17:00,73.9,65.1,29.83,ESE,113,1.2,1.2,74,0.00,CLR,,0.00,WeatherDisplay:10.37,2013-09-07 09:17:00,
2013-09-07 04:22:00,73.9,65.1,29.84,ESE,113,5.8,5.8,74,0.00,CLR,,0.00,WeatherDisplay:10.37,2013-09-07 09:22:00,
2013-09-07 04:27:00,73.8,65.0,29.84,ESE,113,9.2,9.2,74,0.00,CLR,,0.00,WeatherDisplay:10.37,2013-09-07 09:27:00,
2013-09-07 04:32:00,73.8,65.0,29.84,ESE,113,2.3,2.3,74,0.00,CLR,,0.00,WeatherDisplay:10.37,2013-09-07 09:32:00,
2013-09-07 04:37:00,73.9,64.7,29.84,ESE,113,3.5,3.5,73,0.00,CLR,,0.00,WeatherDisplay:10.37,2013-09-07 09:37:00,
2013-09-07 04:42:00,73.8,64.6,29.84,ESE,113,3.0,3.0,73,0.00,CLR,,0.00,WeatherDisplay:10.37,2013-09-07 09:42:00,
2013-09-07 04:47:00,73.8,64.6,29.84,ESE,113,3.5,3.5,73,0.00,CLR,,0.00,WeatherDisplay:10.37,2013-09-07 09:47:00,
2013-09-07 04:52:00,73.6,64.4,29.84,ESE,113,5.0,5.0,73,0.00,CLR,,0.00,WeatherDisplay:10.37,2013-09-07 09:52:00,
2013-09-07 04:57:00,73.5,64.3,29.84,ESE,113,5.8,5.8,73,0.00,CLR,,0.00,WeatherDisplay:10.37,2013-09-07 09:57:00,
2013-09-07 05:02:00,73.4,64.6,29.84,ESE,113,4.0,4.0,74,0.00,CLR,,0.00,WeatherDisplay:10.37,2013-09-07 10:02:00,
2013-09-07 05:07:00,73.3,64.5,29.84,ESE,113,5.8,5.8,74,0.00,CLR,,0.00,WeatherDisplay:10.37,2013-09-07 10:07:00,
2013-09-07 05:12:00,73.3,64.5,29.84,ESE,113,4.6,4.6,74,0.00,CLR,,0.00,WeatherDisplay:10.37,2013-09-07 10:12:00,
2013-09-07 05:17:00,73.3,64.5,29.84,ESE,113,4.6,4.6,74,0.00,CLR,,0.00,WeatherDisplay:10.37,2013-09-07 10:17:00,
2013-09-07 05:22:00,73.2,64.4,29.84,ESE,113,3.5,3.5,74,0.00,CLR,,0.00,WeatherDisplay:10.37,2013-09-07 10:22:00,
2013-09-07 05:27:00,73.1,64.3,29.84,ESE,113,2.3,2.3,74,0.00,CLR,,0.00,WeatherDisplay:10.37,2013-09-07 10:27:00,
2013-09-07 05:32:00,73.1,64.3,29.84,ESE,113,5.8,5.8,74,0.00,CLR,,0.00,WeatherDisplay:10.37,2013-09-07 10:32:00,
2013-09-07 05:37:00,73.1,64.3,29.84,ESE,113,3.5,3.5,74,0.00,CLR,,0.00,WeatherDisplay:10.37,2013-09-07 10:37:00,
2013-09-07 05:42:00,73.0,64.6,29.84,ESE,113,5.8,5.8,75,0.00,CLR,,0.00,WeatherDisplay:10.37,2013-09-07 10:42:00,
2013-09-07 05:47:00,73.0,64.6,29.84,ESE,113,1.2,1.2,75,0.00,CLR,,0.00,WeatherDisplay:10.37,2013-09-07 10:47:00,
2013-09-07 05:53:00,73.0,64.6,29.84,ESE,113,3.5,3.5,75,0.00,CLR,,0.00,WeatherDisplay:10.37,2013-09-07 10:53:00,
2013-09-07 05:58:00,73.1,64.3,29.84,ESE,113,1.2,1.2,74,0.00,CLR,,0.00,WeatherDisplay:10.37,2013-09-07 10:58:00,
2013-09-07 06:03:00,73.1,64.3,29.85,ESE,113,3.5,3.5,74,0.00,CLR,,0.00,WeatherDisplay:10.37,2013-09-07 11:03:00,
2013-09-07 06:08:00,73.1,64.3,29.85,ESE,113,2.3,2.3,74,0.00,CLR,,0.00,WeatherDisplay:10.37,2013-09-07 11:08:00,
2013-09-07 06:13:00,73.2,64.4,29.85,ESE,113,3.5,3.5,74,0.00,CLR,,0.00,WeatherDisplay:10.37,2013-09-07 11:13:00,
2013-09-07 06:18:00,73.2,64.4,29.85,ESE,113,3.5,3.5,74,0.00,CLR,,0.00,WeatherDisplay:10.37,2013-09-07 11:18:00,
2013-09-07 06:23:00,73.1,64.7,29.85,ESE,113,2.3,0.0,75,0.00,CLR,,0.00,WeatherDisplay:10.37,2013-09-07 11:23:00,
2013-09-07 06:28:00,73.0,64.6,29.85,ESE,113,1.2,1.2,75,0.00,CLR,,0.00,WeatherDisplay:10.37,2013-09-07 11:28:00,
2013-09-07 06:33:00,73.0,64.6,29.85,ESE,113,4.6,4.6,75,0.00,CLR,,0.00,WeatherDisplay:10.37,2013-09-07 11:33:00,
2013-09-07 06:38:00,73.0,64.6,29.85,ESE,113,3.5,3.5,75,0.00,CLR,,0.00,WeatherDisplay:10.37,2013-09-07 11:38:00,
2013-09-07 06:43:00,73.0,64.6,29.86,ESE,113,1.2,0.0,75,0.00,CLR,,0.00,WeatherDisplay:10.37,2013-09-07 11:43:00,
2013-09-07 06:48:00,73.0,64.6,29.85,ESE,113,3.5,3.5,75,0.00,CLR,,0.00,WeatherDisplay:10.37,2013-09-07 11:48:00,
2013-09-07 06:53:00,73.2,64.4,29.85,ESE,113,5.8,5.8,74,0.00,CLR,,0.00,WeatherDisplay:10.37,2013-09-07 11:53:00,
2013-09-07 06:58:00,73.3,64.5,29.85,ESE,113,4.6,4.6,74,0.00,CLR,,0.00,WeatherDisplay:10.37,2013-09-07 11:58:00,
2013-09-07 07:03:00,73.5,64.7,29.85,ESE,113,5.0,5.0,74,0.00,CLR,,0.00,WeatherDisplay:10.37,2013-09-07 12:03:00,
2013-09-07 07:08:00,73.6,64.8,29.85,ESE,113,3.5,3.5,74,0.00,CLR,,0.00,WeatherDisplay:10.37,2013-09-07 12:08:00,
2013-09-07 07:13:00,73.8,64.6,29.85,ESE,113,3.5,3.5,73,0.00,CLR,,0.00,WeatherDisplay:10.37,2013-09-07 12:13:00,
2013-09-07 07:18:00,73.9,64.7,29.85,ESE,113,6.9,6.9,73,0.00,CLR,,0.00,WeatherDisplay:10.37,2013-09-07 12:18:00,
2013-09-07 07:23:00,74.0,64.8,29.85,ESE,113,9.2,9.2,73,0.00,CLR,,0.00,WeatherDisplay:10.37,2013-09-07 12:23:00,
2013-09-07 07:28:00,74.2,65.0,29.85,ESE,113,1.0,1.0,73,0.00,CLR,,0.00,WeatherDisplay:10.37,2013-09-07 12:28:00,
2013-09-07 07:33:00,74.4,65.2,29.85,ESE,113,6.9,6.9,73,0.00,CLR,,0.00,WeatherDisplay:10.37,2013-09-07 12:33:00,
2013-09-07 07:38:00,74.5,65.3,29.85,ESE,113,1.2,0.0,73,0.00,CLR,,0.00,WeatherDisplay:10.37,2013-09-07 12:38:00,
2013-09-07 07:43:00,74.5,65.3,29.85,ESE,113,4.6,4.6,73,0.00,CLR,,0.00,WeatherDisplay:10.37,2013-09-07 12:43:00,
2013-09-07 07:48:00,74.5,65.3,29.86,ESE,113,2.0,2.7,73,0.00,CLR,,0.00,WeatherDisplay:10.37,2013-09-07 12:48:00,
2013-09-07 07:53:00,74.6,65.4,29.86,ESE,113,3.5,3.5,73,0.00,CLR,,0.00,WeatherDisplay:10.37,2013-09-07 12:53:00,
2013-09-07 07:58:00,74.6,65.4,29.86,ESE,113,3.5,3.5,73,0.00,CLR,,0.00,WeatherDisplay:10.37,2013-09-07 12:58:00,
2013-09-07 08:03:00,74.7,65.5,29.86,ESE,113,1.2,1.2,73,0.00,CLR,,0.00,WeatherDisplay:10.37,2013-09-07 13:03:00,
2013-09-07 08:08:00,74.9,65.7,29.86,ESE,113,1.2,0.0,73,0.00,CLR,,0.00,WeatherDisplay:10.37,2013-09-07 13:08:00,
2013-09-07 08:13:00,75.1,65.9,29.86,ESE,113,3.5,3.5,73,0.00,CLR,,0.00,WeatherDisplay:10.37,2013-09-07 13:13:00,
2013-09-07 08:18:00,75.5,65.8,29.86,ESE,113,4.0,4.0,72,0.00,CLR,,0.00,WeatherDisplay:10.37,2013-09-07 13:18:00,
2013-09-07 08:23:00,75.9,65.8,29.86,ESE,113,4.6,4.6,71,0.00,CLR,,0.00,WeatherDisplay:10.37,2013-09-07 13:23:00,
2013-09-07 08:28:00,76.2,65.7,29.86,ESE,113,3.5,3.5,70,0.00,CLR,,0.00,WeatherDisplay:10.37,2013-09-07 13:28:00,
2013-09-07 08:33:00,76.4,66.3,29.85,ESE,113,3.5,3.5,71,0.00,CLR,,0.00,WeatherDisplay:10.37,2013-09-07 13:33:00,
2013-09-07 08:38:00,76.6,66.1,29.85,ESE,113,4.6,4.6,70,0.00,CLR,,0.00,WeatherDisplay:10.37,2013-09-07 13:38:00,
2013-09-07 08:43:00,76.8,65.9,29.85,ESE,113,5.8,5.8,69,0.00,CLR,,0.00,WeatherDisplay:10.37,2013-09-07 13:43:00,
2013-09-07 08:48:00,76.8,66.3,29.85,ESE,113,2.3,0.0,70,0.00,CLR,,0.00,WeatherDisplay:10.37,2013-09-07 13:48:00,
2013-09-07 08:53:00,76.7,65.8,29.85,ESE,113,5.8,5.8,69,0.00,CLR,,0.00,WeatherDisplay:10.37,2013-09-07 13:53:00,
2013-09-07 08:58:00,76.7,66.2,29.85,ESE,113,5.8,0.0,70,0.00,CLR,,0.00,WeatherDisplay:10.37,2013-09-07 13:58:00,
2013-09-07 09:03:00,76.9,66.4,29.85,ESE,113,2.3,0.0,70,0.00,CLR,,0.00,WeatherDisplay:10.37,2013-09-07 14:03:00,
2013-09-07 09:08:00,77.3,66.3,29.85,ESE,113,4.6,4.6,69,0.00,CLR,,0.00,WeatherDisplay:10.37,2013-09-07 14:08:00,
2013-09-07 09:13:00,77.8,66.4,29.85,ESE,113,4.6,4.6,68,0.00,CLR,,0.00,WeatherDisplay:10.37,2013-09-07 14:13:00,
2013-09-07 09:18:00,78.1,66.2,29.85,ESE,113,10.4,10.4,67,0.00,CLR,,0.00,WeatherDisplay:10.37,2013-09-07 14:18:00,
2013-09-07 09:23:00,78.5,66.6,29.85,ESE,113,2.3,2.3,67,0.00,CLR,,0.00,WeatherDisplay:10.37,2013-09-07 14:23:00,
2013-09-07 09:28:00,78.9,66.6,29.85,ESE,113,9.2,9.2,66,0.00,CLR,,0.00,WeatherDisplay:10.37,2013-09-07 14:28:00,
2013-09-07 09:33:00,79.2,66.9,29.85,ESE,113,4.6,4.6,66,0.00,CLR,,0.00,WeatherDisplay:10.37,2013-09-07 14:33:00,
2013-09-07 09:38:00,79.5,67.1,29.85,ESE,113,5.0,5.0,66,0.00,CLR,,0.00,WeatherDisplay:10.37,2013-09-07 14:38:00,
2013-09-07 09:43:00,80.1,67.3,29.85,ESE,113,4.6,4.6,65,0.00,CLR,,0.00,WeatherDisplay:10.37,2013-09-07 14:43:00,
2013-09-07 09:48:00,80.6,67.3,29.85,ESE,113,6.9,6.9,64,0.00,CLR,,0.00,WeatherDisplay:10.37,2013-09-07 14:48:00,
2013-09-07 09:53:00,81.1,67.3,29.85,ESE,113,9.2,9.2,63,0.00,CLR,,0.00,WeatherDisplay:10.37,2013-09-07 14:53:00,
2013-09-07 09:58:00,81.5,67.7,29.85,ESE,113,2.3,2.3,63,0.00,CLR,,0.00,WeatherDisplay:10.37,2013-09-07 14:58:00,
2013-09-07 10:03:00,82.0,67.7,29.85,ESE,113,3.5,3.5,62,0.00,CLR,,0.00,WeatherDisplay:10.37,2013-09-07 15:03:00,
2013-09-07 10:08:00,82.3,68.0,29.85,ESE,113,1.2,1.2,62,0.00,CLR,,0.00,WeatherDisplay:10.37,2013-09-07 15:08:00,
2013-09-07 10:13:00,82.7,67.9,29.85,ESE,113,3.5,3.5,61,0.00,CLR,,0.00,WeatherDisplay:10.37,2013-09-07 15:13:00,
2013-09-07 10:18:00,83.0,68.2,29.85,ESE,113,6.9,6.9,61,0.00,CLR,,0.00,WeatherDisplay:10.37,2013-09-07 15:18:00,
2013-09-07 10:23:00,83.2,67.9,29.85,ESE,113,11.5,11.5,60,0.00,CLR,,0.00,WeatherDisplay:10.37,2013-09-07 15:23:00,
2013-09-07 10:28:00,83.2,68.3,29.85,ESE,113,9.2,9.2,61,0.00,CLR,,0.00,WeatherDisplay:10.37,2013-09-07 15:28:00,
2013-09-07 10:33:00,83.7,68.3,29.85,ESE,113,4.6,4.6,60,0.00,CLR,,0.00,WeatherDisplay:10.37,2013-09-07 15:33:00,
2013-09-07 10:38:00,84.4,68.5,29.85,ESE,113,3.5,3.5,59,0.00,CLR,,0.00,WeatherDisplay:10.37,2013-09-07 15:38:00,
2013-09-07 10:43:00,84.6,69.2,29.84,ESE,113,10.4,10.4,60,0.00,CLR,,0.00,WeatherDisplay:10.37,2013-09-07 15:43:00,
2013-09-07 10:48:00,85.4,69.9,29.84,ESE,113,1.2,1.2,60,0.00,CLR,,0.00,WeatherDisplay:10.37,2013-09-07 15:48:00,
2013-09-07 10:53:00,86.2,69.2,29.84,ESE,113,4.6,4.6,57,0.00,CLR,,0.00,WeatherDisplay:10.37,2013-09-07 15:53:00,
2013-09-07 10:58:00,86.5,68.4,29.84,ESE,113,6.9,6.9,55,0.00,CLR,,0.00,WeatherDisplay:10.37,2013-09-07 15:58:00,
2013-09-07 11:03:00,86.8,69.2,29.84,ESE,113,3.5,3.5,56,0.00,CLR,,0.00,WeatherDisplay:10.37,2013-09-07 16:03:00,
2013-09-07 11:08:00,87.5,69.3,29.84,ESE,113,3.5,3.5,55,0.00,CLR,,0.00,WeatherDisplay:10.37,2013-09-07 16:08:00,
2013-09-07 11:13:00,88.1,69.4,29.84,ESE,113,5.8,5.8,54,0.00,CLR,,0.00,WeatherDisplay:10.37,2013-09-07 16:13:00,
2013-09-07 11:18:00,88.2,69.5,29.84,ESE,113,1.2,1.2,54,0.00,CLR,,0.00,WeatherDisplay:10.37,2013-09-07 16:18:00,
2013-09-07 11:23:00,88.4,69.6,29.83,ESE,113,3.5,3.5,54,0.00,CLR,,0.00,WeatherDisplay:10.37,2013-09-07 16:23:00,
2013-09-07 11:28:00,88.3,69.5,29.83,ESE,113,10.4,10.4,54,0.00,CLR,,0.00,WeatherDisplay:10.37,2013-09-07 16:28:00,
2013-09-07 11:33:00,88.6,70.4,29.83,ESE,113,3.5,3.5,55,0.00,CLR,,0.00,WeatherDisplay:10.37,2013-09-07 16:33:00,
2013-09-07 11:38:00,88.7,68.8,29.83,SE,131,16.1,16.1,52,0.00,CLR,,0.00,WeatherDisplay:10.37,2013-09-07 16:38:00,
2013-09-07 11:43:00,88.5,69.7,29.83,SE,131,2.3,2.3,54,0.00,CLR,,0.00,WeatherDisplay:10.37,2013-09-07 16:43:00,
2013-09-07 11:48:00,88.8,70.0,29.83,SE,131,3.5,3.5,54,0.00,CLR,,0.00,WeatherDisplay:10.37,2013-09-07 16:48:00,
2013-09-07 11:53:00,89.1,69.7,29.83,SE,131,3.5,3.5,53,0.00,CLR,,0.00,WeatherDisplay:10.37,2013-09-07 16:53:00,
2013-09-07 11:58:00,89.7,69.7,29.82,SE,131,6.9,6.9,52,0.00,CLR,,0.00,WeatherDisplay:10.37,2013-09-07 16:58:00,
2013-09-07 12:03:00,90.2,70.8,29.82,SE,130,2.3,2.3,53,0.00,CLR,,0.00,WeatherDisplay:10.37,2013-09-07 17:03:00,
2013-09-07 12:08:00,90.5,71.0,29.82,SE,131,1.2,1.2,53,0.00,CLR,,0.00,WeatherDisplay:10.37,2013-09-07 17:08:00,
2013-09-07 12:13:00,90.9,70.3,29.82,SE,132,2.3,2.3,51,0.00,CLR,,0.00,WeatherDisplay:10.37,2013-09-07 17:13:00,
2013-09-07 12:18:00,90.8,70.2,29.82,SE,134,11.5,11.5,51,0.00,CLR,,0.00,WeatherDisplay:10.37,2013-09-07 17:18:00,
2013-09-07 12:23:00,90.6,70.0,29.82,SE,135,3.5,3.5,51,0.00,CLR,,0.00,WeatherDisplay:10.37,2013-09-07 17:23:00,
2013-09-07 12:28:00,90.9,69.7,29.82,SE,135,4.6,4.6,50,0.00,CLR,,0.00,WeatherDisplay:10.37,2013-09-07 17:28:00,
2013-09-07 12:33:00,91.1,70.5,29.81,SE,135,5.8,5.8,51,0.00,CLR,,0.00,WeatherDisplay:10.37,2013-09-07 17:33:00,
2013-09-07 12:38:00,91.5,70.2,29.81,SE,134,4.6,4.6,50,0.00,CLR,,0.00,WeatherDisplay:10.37,2013-09-07 17:38:00,
2013-09-07 12:43:00,92.0,70.7,29.81,SE,135,6.9,6.9,50,0.00,CLR,,0.00,WeatherDisplay:10.37,2013-09-07 17:43:00,
2013-09-07 12:48:00,91.8,69.9,29.81,SE,134,4.6,4.6,49,0.00,CLR,,0.00,WeatherDisplay:10.37,2013-09-07 17:48:00,
2013-09-07 12:53:00,91.7,69.8,29.81,SE,134,3.5,3.5,49,0.00,CLR,,0.00,WeatherDisplay:10.37,2013-09-07 17:53:00,
2013-09-07 12:58:00,92.3,70.4,29.81,SE,134,9.2,9.2,49,0.00,CLR,,0.00,WeatherDisplay:10.37,2013-09-07 17:58:00,
2013-09-07 13:03:00,92.3,69.8,29.81,SE,135,5.8,5.8,48,0.00,CLR,,0.00,WeatherDisplay:10.37,2013-09-07 18:03:00,
2013-09-07 13:08:00,92.4,70.5,29.81,SE,135,6.9,6.9,49,0.00,CLR,,0.00,WeatherDisplay:10.37,2013-09-07 18:08:00,
2013-09-07 13:13:00,92.2,70.9,29.80,SE,134,5.0,5.0,50,0.00,CLR,,0.00,WeatherDisplay:10.37,2013-09-07 18:13:00,
2013-09-07 13:18:00,92.7,70.7,29.80,SE,135,3.5,3.5,49,0.00,CLR,,0.00,WeatherDisplay:10.37,2013-09-07 18:18:00,
2013-09-07 13:23:00,92.9,69.7,29.80,SE,136,5.8,5.8,47,0.00,CLR,,0.00,WeatherDisplay:10.37,2013-09-07 18:23:00,
2013-09-07 13:28:00,93.5,70.9,29.79,SE,136,4.6,4.6,48,0.00,CLR,,0.00,WeatherDisplay:10.37,2013-09-07 18:28:00,
2013-09-07 13:33:00,94.2,71.5,29.79,SE,136,3.5,3.5,48,0.00,CLR,,0.00,WeatherDisplay:10.37,2013-09-07 18:33:00,
2013-09-07 13:38:00,94.7,70.7,29.79,SE,136,3.5,3.5,46,0.00,CLR,,0.00,WeatherDisplay:10.37,2013-09-07 18:38:00,
2013-09-07 13:43:00,95.0,71.0,29.78,SE,136,3.5,3.5,46,0.00,CLR,,0.00,WeatherDisplay:10.37,2013-09-07 18:43:00,
2013-09-07 13:48:00,95.1,71.1,29.79,SSE,156,2.3,2.3,46,0.00,CLR,,0.00,WeatherDisplay:10.37,2013-09-07 18:48:00,
2013-09-07 13:53:00,95.2,71.8,29.78,SSE,156,1.2,1.2,47,0.00,CLR,,0.00,WeatherDisplay:10.37,2013-09-07 18:53:00,
2013-09-07 13:58:00,95.2,70.5,29.78,SSE,156,3.5,3.5,45,0.00,CLR,,0.00,WeatherDisplay:10.37,2013-09-07 18:58:00,
2013-09-07 14:03:00,95.2,71.2,29.78,SSE,156,3.5,3.5,46,0.00,CLR,,0.00,WeatherDisplay:10.37,2013-09-07 19:03:00,
2013-09-07 14:08:00,95.7,71.6,29.78,SSE,156,2.3,2.3,46,0.00,CLR,,0.00,WeatherDisplay:10.37,2013-09-07 19:08:00,
2013-09-07 14:13:00,96.3,70.8,29.78,SSE,156,5.8,5.8,44,0.00,CLR,,0.00,WeatherDisplay:10.37,2013-09-07 19:13:00,
2013-09-07 14:18:00,95.7,71.0,29.77,SSE,156,9.2,9.2,45,0.00,CLR,,0.00,WeatherDisplay:10.37,2013-09-07 19:18:00,
2013-09-07 14:23:00,95.8,71.7,29.76,SSE,156,2.3,2.3,46,0.00,CLR,,0.00,WeatherDisplay:10.37,2013-09-07 19:23:00,
2013-09-07 14:28:00,95.9,71.1,29.76,SSE,156,13.8,13.8,45,0.00,CLR,,0.00,WeatherDisplay:10.37,2013-09-07 19:28:00,
2013-09-07 14:33:00,95.9,70.5,29.76,SSE,157,11.5,11.5,44,0.00,CLR,,0.00,WeatherDisplay:10.37,2013-09-07 19:33:00,
2013-09-07 14:39:00,95.9,71.1,29.76,SSE,157,3.5,3.5,45,0.00,CLR,,0.00,WeatherDisplay:10.37,2013-09-07 19:39:00,
2013-09-07 14:44:00,96.4,71.6,29.76,SSE,157,3.0,3.0,45,0.00,CLR,,0.00,WeatherDisplay:10.37,2013-09-07 19:44:00,
2013-09-07 14:49:00,96.6,71.1,29.76,South,184,3.5,3.5,44,0.00,CLR,,0.00,WeatherDisplay:10.37,2013-09-07 19:49:00,
2013-09-07 14:54:00,96.8,71.3,29.76,South,184,3.5,3.5,44,0.00,CLR,,0.00,WeatherDisplay:10.37,2013-09-07 19:54:00,
2013-09-07 14:59:00,97.1,70.9,29.76,South,184,3.5,3.5,43,0.00,CLR,,0.00,WeatherDisplay:10.37,2013-09-07 19:59:00,
2013-09-07 15:04:00,96.8,72.0,29.76,South,184,6.9,6.9,45,0.00,CLR,,0.00,WeatherDisplay:10.37,2013-09-07 20:04:00,
2013-09-07 15:09:00,96.7,71.9,29.76,South,184,4.6,4.6,45,0.00,CLR,,0.00,WeatherDisplay:10.37,2013-09-07 20:09:00,
2013-09-07 15:14:00,97.0,71.5,29.76,South,184,3.5,3.5,44,0.00,CLR,,0.00,WeatherDisplay:10.37,2013-09-07 20:14:00,
2013-09-07 15:19:00,97.6,72.0,29.75,South,184,3.5,3.5,44,0.00,CLR,,0.00,WeatherDisplay:10.37,2013-09-07 20:19:00,
2013-09-07 15:24:00,97.0,71.5,29.75,South,184,10.4,10.4,44,0.00,CLR,,0.00,WeatherDisplay:10.37,2013-09-07 20:24:00,
2013-09-07 15:29:00,96.8,70.6,29.75,South,184,7.0,7.0,43,0.00,CLR,,0.00,WeatherDisplay:10.37,2013-09-07 20:29:00,
2013-09-07 15:34:00,96.5,71.0,29.75,South,184,1.2,0.0,44,0.00,CLR,,0.00,WeatherDisplay:10.37,2013-09-07 20:34:00,
2013-09-07 15:39:00,97.0,71.5,29.75,South,184,10.4,10.4,44,0.00,CLR,,0.00,WeatherDisplay:10.37,2013-09-07 20:39:00,
2013-09-07 15:44:00,97.0,72.1,29.74,South,184,4.6,4.6,45,0.00,CLR,,0.00,WeatherDisplay:10.37,2013-09-07 20:44:00,
2013-09-07 15:49:00,96.9,71.4,29.74,South,182,3.5,3.5,44,0.00,CLR,,0.00,WeatherDisplay:10.37,2013-09-07 20:49:00,
2013-09-07 15:54:00,97.0,70.8,29.74,South,183,3.5,3.5,43,0.00,CLR,,0.00,WeatherDisplay:10.37,2013-09-07 20:54:00,
2013-09-07 15:59:00,97.1,72.9,29.74,South,184,1.2,1.2,46,0.00,CLR,,0.00,WeatherDisplay:10.37,2013-09-07 20:59:00,
2013-09-07 16:04:00,96.9,72.0,29.74,South,184,8.0,8.0,45,0.00,CLR,,0.00,WeatherDisplay:10.37,2013-09-07 21:04:00,
2013-09-07 16:09:00,97.0,71.5,29.74,South,183,1.2,1.2,44,0.00,CLR,,0.00,WeatherDisplay:10.37,2013-09-07 21:09:00,
2013-09-07 16:14:00,97.5,70.5,29.75,South,184,3.5,3.5,42,0.00,CLR,,0.00,WeatherDisplay:10.37,2013-09-07 21:14:00,
2013-09-07 16:19:00,97.9,71.6,29.74,South,184,4.6,4.6,43,0.00,CLR,,0.00,WeatherDisplay:10.37,2013-09-07 21:19:00,
2013-09-07 16:24:00,97.7,72.1,29.74,South,184,3.5,3.5,44,0.00,CLR,,0.00,WeatherDisplay:10.37,2013-09-07 21:24:00,
2013-09-07 16:29:00,97.7,71.4,29.74,South,184,3.5,3.5,43,0.00,CLR,,0.00,WeatherDisplay:10.37,2013-09-07 21:29:00,
2013-09-07 16:34:00,97.4,71.2,29.74,South,184,2.0,2.0,43,0.00,CLR,,0.00,WeatherDisplay:10.37,2013-09-07 21:34:00,
2013-09-07 16:39:00,97.3,72.4,29.74,South,184,1.2,1.2,45,0.00,CLR,,0.00,WeatherDisplay:10.37,2013-09-07 21:39:00,
2013-09-07 16:44:00,97.2,71.7,29.74,South,183,6.9,6.9,44,0.00,CLR,,0.00,WeatherDisplay:10.37,2013-09-07 21:44:00,
2013-09-07 16:49:00,97.0,71.5,29.74,South,184,9.2,9.2,44,0.00,CLR,,0.00,WeatherDisplay:10.37,2013-09-07 21:49:00,
2013-09-07 16:54:00,96.8,72.6,29.74,South,184,2.0,2.0,46,0.00,CLR,,0.00,WeatherDisplay:10.37,2013-09-07 21:54:00,
2013-09-07 16:59:00,96.1,71.3,29.74,South,183,6.9,6.9,45,0.00,CLR,,0.00,WeatherDisplay:10.37,2013-09-07 21:59:00,
2013-09-07 17:04:00,95.9,71.8,29.74,South,183,1.2,1.2,46,0.00,CLR,,0.00,WeatherDisplay:10.37,2013-09-07 22:04:00,
2013-09-07 17:09:00,96.2,71.4,29.74,South,183,4.6,4.6,45,0.00,CLR,,0.00,WeatherDisplay:10.37,2013-09-07 22:09:00,
2013-09-07 17:14:00,96.5,71.7,29.74,South,183,4.0,4.0,45,0.00,CLR,,0.00,WeatherDisplay:10.37,2013-09-07 22:14:00,
2013-09-07 17:19:00,96.5,72.3,29.73,South,183,3.5,3.5,46,0.00,CLR,,0.00,WeatherDisplay:10.37,2013-09-07 22:19:00,
2013-09-07 17:24:00,96.0,71.2,29.74,South,182,9.2,9.2,45,0.00,CLR,,0.00,WeatherDisplay:10.37,2013-09-07 22:24:00,
2013-09-07 17:29:00,95.4,71.3,29.74,South,182,5.8,5.8,46,0.00,CLR,,0.00,WeatherDisplay:10.37,2013-09-07 22:29:00,
2013-09-07 17:34:00,95.1,71.7,29.74,South,182,4.6,4.6,47,0.00,CLR,,0.00,WeatherDisplay:10.37,2013-09-07 22:34:00,
2013-09-07 17:39:00,95.0,71.6,29.74,South,182,4.6,4.6,47,0.00,CLR,,0.00,WeatherDisplay:10.37,2013-09-07 22:39:00,
2013-09-07 17:44:00,95.2,71.2,29.74,South,182,4.6,4.6,46,0.00,CLR,,0.00,WeatherDisplay:10.37,2013-09-07 22:44:00,
2013-09-07 17:49:00,95.2,71.2,29.74,South,182,5.8,5.8,46,0.00,CLR,,0.00,WeatherDisplay:10.37,2013-09-07 22:49:00,
2013-09-07 17:54:00,95.1,71.1,29.74,South,182,5.8,5.8,46,0.00,CLR,,0.00,WeatherDisplay:10.37,2013-09-07 22:54:00,
2013-09-07 17:59:00,95.1,71.7,29.74,South,182,2.0,2.0,47,0.00,CLR,,0.00,WeatherDisplay:10.37,2013-09-07 22:59:00,
2013-09-07 18:04:00,94.8,70.8,29.74,South,182,6.9,6.9,46,0.00,CLR,,0.00,WeatherDisplay:10.37,2013-09-07 23:04:00,
2013-09-07 18:09:00,94.6,70.6,29.74,South,182,4.0,4.0,46,0.00,CLR,,0.00,WeatherDisplay:10.37,2013-09-07 23:09:00,
2013-09-07 18:14:00,94.4,71.1,29.74,South,182,3.5,3.5,47,0.00,CLR,,0.00,WeatherDisplay:10.37,2013-09-07 23:14:00,
2013-09-07 18:19:00,94.1,71.4,29.74,South,182,1.2,0.0,48,0.00,CLR,,0.00,WeatherDisplay:10.37,2013-09-07 23:19:00,
2013-09-07 18:24:00,93.8,71.7,29.74,South,182,0.0,0.0,49,0.00,CLR,,0.00,WeatherDisplay:10.37,2013-09-07 23:24:00,
2013-09-07 18:29:00,93.6,71.6,29.74,South,182,2.3,2.3,49,0.00,CLR,,0.00,WeatherDisplay:10.37,2013-09-07 23:29:00,
2013-09-07 18:34:00,93.3,70.7,29.74,South,182,2.3,2.3,48,0.00,CLR,,0.00,WeatherDisplay:10.37,2013-09-07 23:34:00,
2013-09-07 18:39:00,92.9,70.9,29.74,South,182,9.2,9.2,49,0.00,CLR,,0.00,WeatherDisplay:10.37,2013-09-07 23:39:00,
2013-09-07 18:44:00,92.7,70.7,29.74,South,182,6.9,6.9,49,0.00,CLR,,0.00,WeatherDisplay:10.37,2013-09-07 23:44:00,
2013-09-07 18:49:00,92.5,70.6,29.74,South,182,3.5,3.5,49,0.00,CLR,,0.00,WeatherDisplay:10.37,2013-09-07 23:49:00,
2013-09-07 18:54:00,92.3,70.4,29.74,South,182,6.9,6.9,49,0.00,CLR,,0.00,WeatherDisplay:10.37,2013-09-07 23:54:00,
2013-09-07 18:59:00,92.1,70.2,29.74,South,182,5.8,5.8,49,0.00,CLR,,0.00,WeatherDisplay:10.37,2013-09-07 23:59:00,
2013-09-07 19:04:00,91.9,70.0,29.74,South,182,3.5,3.5,49,0.00,CLR,,0.00,WeatherDisplay:10.37,2013-09-08 00:04:00,
2013-09-07 19:09:00,91.7,70.4,29.74,South,182,3.5,3.5,50,0.00,CLR,,0.00,WeatherDisplay:10.37,2013-09-08 00:09:00,
2013-09-07 19:14:00,91.5,70.2,29.74,South,182,5.8,0.0,50,0.00,CLR,,0.00,WeatherDisplay:10.37,2013-09-08 00:14:00,
2013-09-07 19:19:00,91.3,70.1,29.75,South,182,1.2,1.2,50,0.00,CLR,,0.00,WeatherDisplay:10.37,2013-09-08 00:19:00,
2013-09-07 19:24:00,91.1,70.5,29.75,South,182,3.5,0.0,51,0.00,CLR,,0.00,WeatherDisplay:10.37,2013-09-08 00:24:00,
2013-09-07 19:29:00,90.8,70.7,29.75,South,182,1.2,0.0,52,0.00,CLR,,0.00,WeatherDisplay:10.37,2013-09-08 00:29:00,
2013-09-07 19:34:00,90.5,71.0,29.75,South,182,3.5,0.0,53,0.00,CLR,,0.00,WeatherDisplay:10.37,2013-09-08 00:34:00,
2013-09-07 19:39:00,90.2,70.8,29.75,South,182,2.3,2.3,53,0.00,CLR,,0.00,WeatherDisplay:10.37,2013-09-08 00:39:00,
2013-09-07 19:44:00,89.9,71.0,29.75,South,182,1.2,1.2,54,0.00,CLR,,0.00,WeatherDisplay:10.37,2013-09-08 00:44:00,
2013-09-07 19:49:00,89.7,70.8,29.75,South,182,3.5,3.5,54,0.00,CLR,,0.00,WeatherDisplay:10.37,2013-09-08 00:49:00,
2013-09-07 19:54:00,89.5,71.2,29.75,South,182,4.6,4.6,55,0.00,CLR,,0.00,WeatherDisplay:10.37,2013-09-08 00:54:00,
2013-09-07 19:59:00,89.3,71.0,29.75,South,182,4.0,4.0,55,0.00,CLR,,0.00,WeatherDisplay:10.37,2013-09-08 00:59:00,
2013-09-07 20:04:00,89.2,70.9,29.75,South,182,4.6,4.6,55,0.00,CLR,,0.00,WeatherDisplay:10.37,2013-09-08 01:04:00,
2013-09-07 20:09:00,89.0,71.3,29.75,South,182,6.9,6.9,56,0.00,CLR,,0.00,WeatherDisplay:10.37,2013-09-08 01:09:00,
2013-09-07 20:14:00,88.9,71.2,29.74,South,182,6.9,6.9,56,0.00,CLR,,0.00,WeatherDisplay:10.37,2013-09-08 01:14:00,
2013-09-07 20:19:00,88.6,71.4,29.74,South,182,5.0,5.0,57,0.00,CLR,,0.00,WeatherDisplay:10.37,2013-09-08 01:19:00,
2013-09-07 20:24:00,88.4,71.2,29.74,South,182,3.5,3.5,57,0.00,CLR,,0.00,WeatherDisplay:10.37,2013-09-08 01:24:00,
2013-09-07 20:29:00,88.2,71.6,29.74,South,182,6.9,6.9,58,0.00,CLR,,0.00,WeatherDisplay:10.37,2013-09-08 01:29:00,
2013-09-07 20:34:00,88.0,71.4,29.74,South,182,5.8,5.8,58,0.00,CLR,,0.00,WeatherDisplay:10.37,2013-09-08 01:34:00,
2013-09-07 20:39:00,87.8,71.2,29.73,South,182,8.1,8.1,58,0.00,CLR,,0.00,WeatherDisplay:10.37,2013-09-08 01:39:00,
2013-09-07 20:44:00,87.5,71.4,29.73,South,182,4.6,4.6,59,0.00,CLR,,0.00,WeatherDisplay:10.37,2013-09-08 01:44:00,
2013-09-07 20:49:00,87.3,71.2,29.73,South,182,10.4,10.4,59,0.00,CLR,,0.00,WeatherDisplay:10.37,2013-09-08 01:49:00,
2013-09-07 20:54:00,87.1,71.0,29.73,South,182,11.5,11.5,59,0.00,CLR,,0.00,WeatherDisplay:10.37,2013-09-08 01:54:00,
2013-09-07 20:59:00,87.2,71.1,29.73,South,182,10.4,10.4,59,0.00,CLR,,0.00,WeatherDisplay:10.37,2013-09-08 01:59:00,
2013-09-07 21:04:00,87.1,71.0,29.73,South,182,6.9,6.9,59,0.00,CLR,,0.00,WeatherDisplay:10.37,2013-09-08 02:04:00,
2013-09-07 21:09:00,87.0,70.9,29.73,South,182,9.2,9.2,59,0.00,CLR,,0.00,WeatherDisplay:10.37,2013-09-08 02:09:00,
2013-09-07 21:14:00,87.0,70.9,29.73,South,182,11.5,11.5,59,0.00,CLR,,0.00,WeatherDisplay:10.37,2013-09-08 02:14:00,
2013-09-07 21:19:00,86.9,70.8,29.73,South,182,4.6,4.6,59,0.00,CLR,,0.00,WeatherDisplay:10.37,2013-09-08 02:19:00,
2013-09-07 21:24:00,86.9,70.8,29.73,South,182,11.5,11.5,59,0.00,CLR,,0.00,WeatherDisplay:10.37,2013-09-08 02:24:00,
2013-09-07 21:29:00,86.8,70.8,29.73,South,182,2.3,2.3,59,0.00,CLR,,0.00,WeatherDisplay:10.37,2013-09-08 02:29:00,
2013-09-07 21:34:00,86.7,70.7,29.73,South,182,6.9,6.9,59,0.00,CLR,,0.00,WeatherDisplay:10.37,2013-09-08 02:34:00,
2013-09-07 21:39:00,86.7,70.7,29.73,South,182,3.5,4.7,59,0.00,CLR,,0.00,WeatherDisplay:10.37,2013-09-08 02:39:00,
2013-09-07 21:44:00,86.6,70.6,29.73,South,182,4.6,4.6,59,0.00,CLR,,0.00,WeatherDisplay:10.37,2013-09-08 02:44:00,
2013-09-07 21:49:00,86.6,70.6,29.74,South,182,9.2,9.2,59,0.00,CLR,,0.00,WeatherDisplay:10.37,2013-09-08 02:49:00,
2013-09-07 21:54:00,86.5,70.5,29.74,South,182,3.5,3.5,59,0.00,CLR,,0.00,WeatherDisplay:10.37,2013-09-08 02:54:00,
2013-09-07 21:59:00,86.3,70.3,29.74,South,182,6.9,6.9,59,0.00,CLR,,0.00,WeatherDisplay:10.37,2013-09-08 02:59:00,
2013-09-07 22:04:00,86.3,70.8,29.74,South,182,4.6,4.6,60,0.00,CLR,,0.00,WeatherDisplay:10.37,2013-09-08 03:04:00,
2013-09-07 22:09:00,86.2,70.7,29.74,South,182,4.6,4.6,60,0.00,CLR,,0.00,WeatherDisplay:10.37,2013-09-08 03:09:00,
2013-09-07 22:14:00,86.1,70.6,29.75,South,182,1.0,6.0,60,0.00,CLR,,0.00,WeatherDisplay:10.37,2013-09-08 03:14:00,
2013-09-07 22:19:00,86.0,70.5,29.75,South,182,3.5,0.0,60,0.00,CLR,,0.00,WeatherDisplay:10.37,2013-09-08 03:19:00,
2013-09-07 22:24:00,85.9,70.4,29.75,South,182,0.0,3.0,60,0.00,CLR,,0.00,WeatherDisplay:10.37,2013-09-08 03:24:00,
2013-09-07 22:29:00,85.7,70.7,29.75,South,182,2.3,2.3,61,0.00,CLR,,0.00,WeatherDisplay:10.37,2013-09-08 03:29:00,
2013-09-07 22:34:00,85.7,70.7,29.75,South,182,4.0,4.0,61,0.00,CLR,,0.00,WeatherDisplay:10.37,2013-09-08 03:34:00,
2013-09-07 22:39:00,85.6,70.6,29.75,South,182,4.6,4.6,61,0.00,CLR,,0.00,WeatherDisplay:10.37,2013-09-08 03:39:00,
2013-09-07 22:44:00,85.5,70.5,29.75,South,182,3.5,3.5,61,0.00,CLR,,0.00,WeatherDisplay:10.37,2013-09-08 03:44:00,
2013-09-07 22:49:00,85.4,70.4,29.75,South,182,6.9,6.9,61,0.00,CLR,,0.00,WeatherDisplay:10.37,2013-09-08 03:49:00,
2013-09-07 22:54:00,85.3,70.3,29.74,South,182,9.2,9.2,61,0.00,CLR,,0.00,WeatherDisplay:10.37,2013-09-08 03:54:00,
2013-09-07 22:59:00,85.2,70.7,29.74,South,182,6.9,6.9,62,0.00,CLR,,0.00,WeatherDisplay:10.37,2013-09-08 03:59:00,
2013-09-07 23:01:00,85.1,70.6,29.74,South,182,5.8,5.8,62,0.00,CLR,,0.00,WeatherDisplay:10.37,2013-09-08 04:01:00,
2013-09-07 23:02:00,85.1,70.6,29.74,South,182,4.6,4.6,62,0.00,CLR,,0.00,WeatherDisplay:10.37,2013-09-08 04:02:00,
2013-09-07 23:07:00,85.1,70.1,29.74,South,183,9.2,9.2,61,0.00,CLR,,0.00,WeatherDisplay:10.37,2013-09-08 04:07:00,
2013-09-07 23:12:00,85.1,70.6,29.74,South,183,4.0,4.0,62,0.00,CLR,,0.00,WeatherDisplay:10.37,2013-09-08 04:12:00,
2013-09-07 23:17:00,85.0,70.0,29.74,South,183,11.5,11.5,61,0.00,CLR,,0.00,WeatherDisplay:10.37,2013-09-08 04:17:00,
2013-09-07 23:22:00,85.0,70.0,29.74,South,183,6.9,6.9,61,0.00,CLR,,0.00,WeatherDisplay:10.37,2013-09-08 04:22:00,
2013-09-07 23:27:00,85.0,70.0,29.74,South,183,4.0,4.0,61,0.00,CLR,,0.00,WeatherDisplay:10.37,2013-09-08 04:27:00,
2013-09-07 23:32:00,85.1,70.1,29.74,South,183,9.2,9.2,61,0.00,CLR,,0.00,WeatherDisplay:10.37,2013-09-08 04:32:00,
2013-09-07 23:37:00,85.0,70.0,29.74,South,183,4.6,4.6,61,0.00,CLR,,0.00,WeatherDisplay:10.37,2013-09-08 04:37:00,
2013-09-07 23:42:00,84.9,69.9,29.74,South,183,4.6,4.6,61,0.00,CLR,,0.00,WeatherDisplay:10.37,2013-09-08 04:42:00,
2013-09-07 23:47:00,84.8,70.3,29.74,South,183,2.3,2.3,62,0.00,CLR,,0.00,WeatherDisplay:10.37,2013-09-08 04:47:00,
2013-09-07 23:52:00,84.6,70.1,29.74,South,183,3.5,3.5,62,0.00,CLR,,0.00,WeatherDisplay:10.37,2013-09-08 04:52:00,
2013-09-07 23:57:00,84.5,70.5,29.74,South,183,5.8,5.8,63,0.00,CLR,,0.00,WeatherDisplay:10.37,2013-09-08 04:57:00,